www.pogodaiklimat.ru

Погода и климат >> Архив погоды >> Россия >> Эвенкия >> Тура


ПОГОДА в Туре

АРХИВ ПОГОДЫ в Туре

Время (UTC), дата Ветер
(напр.,м/с)
 
Видим.   Явления Облачность Т
(С)
Тd
(С)
f
(%)
Тe
(С)
Тes
(С)
Комфортность P
(гПа)
Po
(гПа)
Тmin
(С)
Tmax
(С)
R
(мм)
R24
(мм)
S
(см)
06 17.05 СЗ 4 20 км 9/8 600 м
[Cb cap Ci sp]
+0.5 -11.0 42 -4 -3 1008.5 984.8
09 17.05 С 2 20 км 8/8 600 м
[Cb cap]
+2.2 -11.5 36 0 +1 1009.2 985.7
12 17.05 З 3 20 км {ливн. осадки} 10/10 600 м
[Cb cap]
+1.0 -8.3 50 -3 -3 1010.8 987.1 +2.5 0.0
15 17.05 СЗ 2 н/о слабый ливневой снег 10/10 600 м
[Cb cap]
-1.8 -4.2 84 -6 -6 1012.4 988.4
18 17.05 СЗ 1 н/о слабый ливневой снег 10/10 600 м
[Cb cap]
-4.1 -6.4 84 -6 -6 1014.5 990.3
21 17.05 СЗ 2 2000 м слабый ливневой снег 10/10 600 м
[Cb cap]
-5.8 -9.2 77 -10 -10 1015.7 991.3
00 18.05 ЮЗ 2 2000 м слабый ливневой снег 10/8 600 м
[Cb cap Ci fib]
-5.8 -8.8 79 -10 -10 1016.5 992.1 -6.1 3 4
03 18.05 ЮЗ 2 2000 м слабый ливневой снег 10/8 600 м
[Cb cap Ci fib]
-5.8 -8.8 79 -10 -9 1016.5 992.1 -6.1 3 4
06 18.05 ЮВ 1 2000 м слабый ливневой снег 10/8 600 м
[Cb cap Ci fib]
-3.3 -8.8 66 -5 -3 1016.8 992.5
09 18.05 С 3 20 км {ливн. осадки} 9/8 600 м
[Cb cap Ci sp]
-1.8 -7.1 67 -6 -5 1017.9 993.8
12 18.05 СЗ 3 20 км {ливн. осадки} 8/5 600 м
[Cb cap Ci fib]
-1.0 -9.7 52 -5 -5 1018.4 994.3 +0.2 0.5
15 18.05 С 1 н/о 4/4 1000 м
[Cu Sc]
-3.2 -11.5 53 -5 -5 1019.9 995.6
18 18.05 С 1 н/о 6/6 1000 м
[Sc]
-6.4 -10.9 70 -9 -9 1020.8 996.3
21 18.05 штиль 0 20 км 6/0
[Ci fib]
-7.9 -11.5 75 -8 -8 1021.3 996.6
00 19.05 З 1 20 км 3/1 1000 м
[Cu hum Ci fib]
-3.5 -8.8 67 -5 -2 1021.3 997.0 -8.1
03 19.05 Ю 2 20 км 9/9 600 м
[Cb cap]
+1.4 -9.3 45 -1 -0 1020.2 996.4
06 19.05 В 1 20 км 10/8 600 м
[Cb cap Ci fib]
+2.9 -11.8 33 +2 +4 1019.4 995.7
09 19.05 ЮЗ 2 20 км 9/8 600 м
[Cb cap Ci fib]
+4.7 -13.6 25 +3 +4 1018.8 995.2
12 19.05 ЮВ 2 20 км 10/1 1000 м
[Sc Ac lent Cs]
+4.8 -12.7 27 +3 +4 1018.0 994.4 +4.9
15 19.05 В 3 н/о 8/4 1000 м
[Sc Ac trans Ci fib]
+2.4 -12.3 33 -1 -1 1017.1 993.4
18 19.05 В 2 н/о 6/1 1000 м
[Cu hum Ci sp]
+0.9 -11.1 40 -2 -2 1015.8 992.0
21 19.05 ЮВ 3 20 км 8/5 1000 м
[Sc Ci sp]
+0.2 -10.1 46 -4 -4 1013.1 989.3
00 20.05 В 5
{10}
20 км 9/6 600 м
[Cb cap Ci sp]
+2.4 -10.0 39 -2 -2 1009.9 986.4 -0.1
03 20.05 ЮВ 7
{14}
10 км слабый ливневой снег 10/10 600 м
[Cb cap]
+2.6 -5.1 57 -3 -3 1007.6 984.1
06 20.05 З 5
{11}
20 км {ливн. осадки} 8/5 600 м
[Cb cap Ci fib]
+1.6 -8.3 48 -3 -1 1009.9 986.3
09 20.05 ЮЗ 3
{10}
20 км 9/9 600 м
[Cb cap]
+2.4 -10.5 38 -1 -0 1010.9 987.4
12 20.05 З 4 20 км 10/10 600 м
[Cb cap]
+2.3 -8.6 44 -2 -2 1010.6 987.1 +3.1 0.2
15 20.05 СЗ 1
{10}
20 км {ливн. осадки} 10/6 600 м
[Cb cap Ci fib]
-1.4 -4.4 80 -3 -3 1010.7 986.9
18 20.05 ЮВ 3 н/о {ливн. осадки} 3/3 600 м
[Cb cap]
-2.0 -5.2 79 -7 -7 1009.2 985.3
21 20.05 ЮЗ 1 20 км 10/10 600 м
[Cb cap]
-1.7 -5.8 74 -4 -4 1008.4 984.6
00 21.05 З 1 10 км слабый ливневой снег 10/10 600 м
[Cb cap]
-1.1 -4.0 81 -3 -3 1007.8 984.0 -2.7 0.2 <0.5
03 21.05 З 2 10 км слабый ливневой снег 10/10 600 м
[Cb cap]
+0.3 -3.5 76 -3 -3 1007.2 983.5
06 21.05 СЗ 2 10 км слабый ливневой снег 10/10 600 м
[Cb cap]
-0.4 -5.1 71 -4 -4 1008.3 984.5
09 21.05 СЗ 2 20 км {ливн. осадки} 9/9 600 м
[Cb cap]
+2.4 -8.5 44 0 +1 1009.0 985.5
12 21.05 З 4 20 км {ливн. осадки} 8/3 600 м
[Cb cap Ci fib]
+2.6 -11.8 34 -1 -1 1010.4 986.9 +3.8 0.9
15 21.05 СЗ 2 20 км 6/4 600 м
[Cb cap Ci fib]
-0.5 -10.3 47 -3 -3 1011.8 987.9
18 21.05 СЗ 1 н/о 6/3 600 м
[Cb cap Ac trans Ci fib]
-2.6 -8.2 65 -4 -4 1012.7 988.6
21 21.05 З 2 20 км {ливн. осадки} 8/3 600 м
[Cb cap Ci fib]
-2.8 -5.5 82 -7 -7 1013.9 989.8
00 22.05 СЗ 1 20 км {ливн. осадки} 3/0
[Ci fib]
+0.4 -4.4 70 -1 +3 1014.6 990.8 -3.0 0.0
03 22.05 Ю 2 20 км 3/1 1000 м
[Cu hum Ci fib]
+6.0 -6.5 40 +4 +13 опасность
простуды
1014.4 991.0
06 22.05 Ю 2 20 км 8/0
[Ac trans Ci sp]
+8.8 -8.5 28 +8 +15 1013.3 990.2
09 22.05 З 1 20 км 6/3 1000 м
[Cu hum Ac trans Ci sp]
+10.2 -6.1 31 +11 +15 1011.7 988.8
12 22.05 Ю 3 20 км 8/5 1000 м
[Cu Sc Ci sp]
+9.8 -12.0 20 +8 +9 1010.8 987.8 +11.1
15 22.05 ЮВ 3 20 км 10/0
[Ac trans Ci fib]
+6.3 -10.0 30 +4 +4 1009.5 986.3
18 22.05 В 4 н/о 10/0
[Ac As Cs]
+4.5 -8.7 38 +1 +1 1007.3 984.0
21 22.05 В 5 20 км 10/6 1000 м
[Sc Ac As]
+4.8 -9.2 35 +1 +1 1003.4 980.2
00 23.05 ЮВ 5
{11}
4000 м слабый ливневой дождь со снегом 10/10 600 м
[Cb cap]
+2.4 0.0 84 -3 -3 999.8 976.5 +2.4 0.3
03 23.05 В 3
{10}
4000 м слабый ливневой дождь со снегом 10/10 600 м
[Cb cap]
+1.8 +0.7 92 -3 -3 994.3 971.1 +1.8
06 23.05 ЮВ 3 10 км слабый ливневой дождь 10/10 600 м
[Cb cap]
+3.6 +2.9 95 -0 -0 992.1 969.0
09 23.05 Ю 1 20 км {ливн. осадки} 10/10 600 м
[Cb cap]
+5.3 +4.1 92 +4 +4 991.9 969.0
12 23.05 З 1 20 км {ливн. осадки} 9/9 600 м
[Cb cap]
+9.4 +7.3 87 +9 +9 991.7 969.1 +9.4 7
15 23.05 З 1 20 км 8/8 600 м
[Cb cap]
+7.9 +5.2 83 +7 +7 990.6 968.0
18 23.05 З 5
{16}
н/о {ливн. осадки} 4/4 600 м
[Cb cap]
+4.2 -0.3 72 -1 -1 994.7 971.7
21 23.05 З 2
{12}
20 км 3/3 600 м
[Cb cap]
+3.5 -3.2 62 +1 +1 997.4 974.2
00 24.05 З 4 20 км 8/8 600 м
[Cb cap]
+5.5 -3.3 53 +2 +3 999.1 976.1 +3.1 0.0
03 24.05 СЗ 3 20 км 9/9 600 м
[Cb cap]
+7.1 -1.7 54 +5 +5 999.5 976.7

 

Местоположение метеостанции Тура (Эвенкия, Россия): широта 64.33 долгота 100.40 высота над уровнем моря 624 м.

В архиве по умолчанию представлена погода в Туре за последнюю неделю. Архивные данные за месяц целиком и за предыдущие месяцы, начиная с января 2011 года, Вы можете получить, выбрав интересующий диапазон дат из раскрывающегося списка и нажав кнопку "Ввод!".

Внимание! Время в таблицах - всемирное. Для получения местного времени необходимо прибавить поправку, которая в Туре равна 7 ч.

Смотрите также архив погоды в соседних городах и на ближайших метеорологических станциях:

Погода в Тембенчи (Эвенкия, Россия) (99 км)
Погода в Кербо (Эвенкия, Россия) (182 км)
Погода в Кислокане (Эвенкия, Россия) (190 км)
Погода в Стрелке-Чуне (Эвенкия, Россия) (311 км)
Погода в Тутончанах (Эвенкия, Россия) (320 км)
Погода в Муторае (Эвенкия, Россия) (334 км)
Погода в Байките (Эвенкия, Россия) (359 км)
Погода в Агате (Эвенкия, Россия) (426 км)
Погода в Усть-Камо (Эвенкия, Россия) (428 км)
Погода в Ванаваре (Эвенкия, Россия) (456 км)

Пояснения к столбцам:

Ветер - указаны скорость ветра в м/с - средняя за 10 мин, порывы в срок и между сроками (в фигурных скобках) и направление, откуда дует ветер: С - северный, СВ - северо-восточный, В - восточный, ЮВ - юго-восточный, Ю - южный, ЮЗ - юго-западный, З - западный, СЗ - северо-западный.
Видимость - горизонтальная дальность видимости в метрах или километрах. При видимости от 1 до 10 км при отсутствии осадков обычно наблюдается дымка, при ухудшении видимости до 1 км и менее - туман. В сухую погоду видимость может ухудшаться дымом, пылью или мглою.
Явления - указаны атмосферные явления, наблюдавшиеся в срок или в последний час перед сроком; фигурными скобками обозначены явления, наблюдавшиеся между сроками (за 1-3 часа до срока); квадратными скобками обозначены град или гололедные отложения с указанием их диаметра в мм.
Облачность - указаны через наклонную черту общая и нижняя облачность в баллах и высота нижней границы облаков в метрах; квадратными скобками обозначены формы облаков: Ci - перистые, Cs - перисто-слоистые, Cc - перисто-кучевые, Ac - высококучевые, As - высокослоистые, Sc - слоисто-кучевые, Ns - слоисто-дождевые, Cu - кучевые, Cb - кучево-дождевые. Подробнее классификацию облаков см. в Атласе облаков (PDF).
T - Температура воздуха - температура, измеренная на высоте 2 м над землей.
Td - Температура точки росы - температура, при понижении до которой содержащийся в воздухе водяной пар достигнет насыщения.
f - Относительная влажность воздуха - влажноcть воздуха, измеренная на высоте 2 м над землей.
Te - Эффективная температура - температура, которую ощущает одетый по сезону человек в тени. Характеристика душности погоды. При расчете учитывается влияние влажности воздуха и скорости ветра на теплоощущения человека.
Tes - Эффективная температура на солнце - температура, которую ощущает человек, с поправкой на солнечный нагрев. Характеристика знойности погоды. Зависит от высоты солнца над горизонтом, облачности и скорости ветра. Ночью, в пасмурную погоду, а также при ветре 12 м/с и более поправка равна нулю.
P - Атмосферное давление - приведенное к уровню моря атмосферное давление.
Po - Атмосферное давление - измеренное на уровне метеостанции атмосферное давление.
Tmin - Минимальная температура - минимум температуры воздуха на высоте 2 м над землей.
Tmax - Максимальная температура - максимум температуры воздуха на высоте 2 м над землей.
R - Количество осадков - Количество выпавших осадков за период времени, мм. При наведении курсора мыши на число - период времени, за который выпало указанное количество осадков.
R24 - Количество осадков - Количество выпавших осадков за 24 часа, мм.
S - Снежный покров - Высота снежного покрова, см. При наведении курсора мыши на число - состояние снежного покрова и степень покрытия местности в баллах.